Whitefield, NH

10:59 PM EDT on August 22, 2017 (GMT -0400)
Mount Washington Regional

Weather History for KHIE - February, 2013

Change the Weather History Date:

Wednesday, February 20, 2013

  Actual Average Record
Temperature  
Mean Temperature 27 °F -  
Max Temperature 33 °F 29 °F 48 °F (2016)
Min Temperature 21 °F 2 °F -20 °F (2015)
Degree Days  
Heating Degree Days 38    
Moisture  
Dew Point 22 °F    
Average Humidity 82    
Maximum Humidity 93    
Minimum Humidity 63    
Precipitation  
Precipitation 0.19 in - - ()
Sea Level Pressure  
Sea Level Pressure 29.55 in    
Wind  
Wind Speed 4 mph (WSW)    
Max Wind Speed 18 mph    
Max Gust Speed 25 mph    
Visibility 4 miles    
Events Fog , Snow    
Averages and records for this station are not official NWS values.
T = Trace of Precipitation, MM = Missing Value Source: NWS Daily Summary

Daily Weather History Graph

Daily Weather History Graph

Search for Another Location

Airport or City:

Trip Planner

Search our weather history database for the weather conditions in past years. The results will help you decide how hot, cold, wet, or windy it might be!

Date:

Astronomy

Feb. 20, 2013 Rise Set
Actual Time 6:37 AM EST 5:22 PM EST
Civil Twilight 6:08 AM EST 5:51 PM EST
Nautical Twilight 5:34 AM EST 6:25 PM EST
Astronomical Twilight 5:01 AM EST 6:59 PM EST
Moon 12:34 PM EST (2/20) 3:02 AM EST (2/20)
Length of Visible Light 11h 43m
Length of Day
10h 44m
Waxing Gibbous, 76% of the Moon is Illuminated
Feb 20
Waxing Gibbous
Feb 25
Full
Mar 4
Last Quarter
Mar 11
New
Mar 19
First Quarter

Hourly Weather History & Observations

Time (EST) Temp. Windchill Dew Point Humidity Pressure Visibility Wind Dir Wind Speed Gust Speed Precip Events Conditions
12:11 AM 33.8 °F - 30.2 °F 87% 29.52 in 2.5 mi Calm Calm - 0.00 in Snow Light Snow
12:35 AM 33.8 °F - 30.2 °F 87% 29.50 in 4.0 mi Calm Calm - 0.01 in Snow Light Snow
12:42 AM 33.8 °F - 30.2 °F 87% 29.50 in 4.0 mi Calm Calm - 0.01 in Snow Light Snow
12:52 AM 33.1 °F - 30.0 °F 89% 29.53 in 4.0 mi Calm Calm - 0.01 in Snow Light Snow
1:49 AM 32.0 °F - 30.2 °F 93% 29.48 in 5.0 mi Calm Calm - 0.00 in Snow Light Snow
1:52 AM 33.1 °F - 30.0 °F 89% 29.51 in 4.0 mi Calm Calm - 0.01 in Snow Light Snow
2:03 AM 32.0 °F - 30.2 °F 93% 29.47 in 2.0 mi Calm Calm - 0.02 in Snow Light Snow
2:10 AM 32.0 °F 28.7 °F 30.2 °F 93% 29.47 in 1.0 mi Variable 3.5 mph - 0.03 in Snow Light Snow
2:27 AM 32.0 °F - 30.2 °F 93% 29.47 in 1.5 mi Calm Calm - 0.05 in Snow Light Snow
2:52 AM 33.1 °F 25.5 °F 30.0 °F 89% 29.50 in 1.5 mi West 9.2 mph - 0.07 in Snow Light Snow
3:03 AM 30.2 °F 18.1 °F 28.4 °F 93% 29.48 in 1.0 mi WNW 18.4 mph 25.3 mph 0.00 in Snow Light Snow
3:21 AM 30.2 °F 21.9 °F 26.6 °F 86% 29.49 in 1.2 mi WNW 9.2 mph 21.9 mph 0.00 in Snow Light Snow
3:31 AM 30.2 °F 22.6 °F 26.6 °F 86% 29.50 in 2.0 mi WNW 8.1 mph - 0.00 in Snow Light Snow
3:49 AM 30.2 °F 24.3 °F 26.6 °F 86% 29.50 in 1.8 mi NW 5.8 mph - 0.01 in Snow Light Snow
3:52 AM 28.9 °F 22.8 °F 26.1 °F 89% 29.53 in 1.5 mi NW 5.8 mph - 0.01 in Snow Light Snow
4:01 AM 28.4 °F 22.2 °F 26.6 °F 93% 29.50 in 1.5 mi WNW 5.8 mph - 0.01 in Snow Light Snow
4:07 AM 28.4 °F 24.6 °F 26.6 °F 93% 29.51 in 0.8 mi West 3.5 mph - 0.02 in Snow Light Snow
4:14 AM 28.4 °F 23.3 °F 26.6 °F 93% 29.51 in 0.5 mi West 4.6 mph - 0.04 in Fog , Snow Snow
4:22 AM 28.4 °F 21.2 °F 24.8 °F 86% 29.52 in 1.2 mi West 6.9 mph - 0.04 in Snow Light Snow
4:35 AM 28.4 °F 18.5 °F 24.8 °F 86% 29.52 in 1.0 mi West 11.5 mph 16.1 mph 0.05 in Snow Light Snow
4:47 AM 28.4 °F 23.3 °F 24.8 °F 86% 29.53 in 1.2 mi Variable 4.6 mph - 0.05 in Snow Light Snow
4:52 AM 27.0 °F 18.7 °F 24.1 °F 89% 29.57 in 1.5 mi WSW 8.1 mph - 0.05 in Snow Light Snow
5:06 AM 26.6 °F 17.5 °F 21.2 °F 80% 29.53 in 1.5 mi West 9.2 mph 19.6 mph 0.01 in Snow Light Snow
5:48 AM 26.6 °F 22.6 °F 21.2 °F 80% 29.53 in 2.0 mi Variable 3.5 mph - 0.02 in Snow Light Snow
5:52 AM 26.1 °F - 23.0 °F 88% 29.57 in 2.5 mi Calm Calm - 0.02 in Snow Light Snow
6:10 AM 26.6 °F 22.6 °F 21.2 °F 80% 29.53 in 3.0 mi SW 3.5 mph - 0.00 in Snow Light Snow
6:21 AM 26.6 °F - 21.2 °F 80% 29.53 in 2.5 mi Calm Calm - 0.00 in Snow Light Snow
6:28 AM 26.6 °F - 21.2 °F 80% 29.53 in 3.0 mi Calm Calm - 0.01 in Snow Light Snow
6:52 AM 26.1 °F - 23.0 °F 88% 29.57 in 1.5 mi Calm Calm - 0.01 in Snow Light Snow
7:02 AM 26.6 °F 22.6 °F 23.0 °F 86% 29.53 in 2.0 mi SSW 3.5 mph - 0.00 in Snow Light Snow
7:10 AM 26.6 °F 22.6 °F 23.0 °F 86% 29.53 in 3.0 mi SSW 3.5 mph - 0.00 in Snow Light Snow
7:52 AM 26.1 °F 19.4 °F 21.0 °F 81% 29.57 in 10.0 mi WSW 5.8 mph - 0.00 in   Overcast
7:59 AM 26.6 °F 21.2 °F 21.2 °F 80% 29.53 in 10.0 mi WSW 4.6 mph - N/A   Overcast
8:30 AM 26.6 °F - 21.2 °F 80% 29.53 in 10.0 mi Calm Calm - N/A   Overcast
8:52 AM 27.0 °F 21.6 °F 21.0 °F 78% 29.57 in 10.0 mi SW 4.6 mph - N/A   Overcast
9:07 AM 26.6 °F 21.2 °F 21.2 °F 80% 29.53 in 10.0 mi WSW 4.6 mph - N/A   Overcast
9:32 AM 26.6 °F 21.2 °F 19.4 °F 74% 29.53 in 10.0 mi Variable 4.6 mph - 0.00 in Snow Light Snow
9:52 AM 27.0 °F 19.5 °F 19.9 °F 75% 29.57 in 9.0 mi WSW 6.9 mph - 0.00 in Snow Light Snow
10:52 AM 27.0 °F 18.0 °F 16.0 °F 63% 29.57 in 10.0 mi West 9.2 mph 17.3 mph 0.00 in   Overcast
11:52 AM 27.0 °F 20.5 °F 16.0 °F 63% 29.57 in 10.0 mi WSW 5.8 mph - N/A   Overcast
12:52 PM 27.0 °F 20.5 °F 16.0 °F 63% 29.57 in 10.0 mi West 5.8 mph - N/A   Overcast
1:52 PM 26.1 °F 16.8 °F 15.1 °F 63% 29.57 in 10.0 mi West 9.2 mph - N/A   Overcast
2:52 PM 25.0 °F 19.3 °F 17.1 °F 72% 29.58 in 9.0 mi WSW 4.6 mph - 0.00 in Snow Light Snow
3:07 PM 24.8 °F 17.9 °F 17.6 °F 74% 29.54 in 7.0 mi West 5.8 mph - 0.00 in Snow Light Snow
3:25 PM 24.8 °F 19.1 °F 17.6 °F 74% 29.55 in 2.5 mi WNW 4.6 mph - 0.00 in Snow Light Snow
3:52 PM 24.1 °F 18.2 °F 19.0 °F 81% 29.60 in 2.0 mi WNW 4.6 mph - 0.00 in Snow Light Snow
4:10 PM 24.8 °F 20.5 °F 19.4 °F 80% 29.56 in 1.5 mi West 3.5 mph - 0.00 in Snow Light Snow
4:40 PM 24.8 °F 16.9 °F 19.4 °F 80% 29.56 in 2.0 mi SW 6.9 mph - 0.00 in Snow Light Snow
4:52 PM 24.1 °F 16.0 °F 18.0 °F 77% 29.61 in 2.0 mi SW 6.9 mph - 0.00 in Snow Light Snow
5:01 PM 24.8 °F 17.9 °F 19.4 °F 80% 29.57 in 1.8 mi Variable 5.8 mph - 0.00 in Snow Light Snow
5:28 PM 23.0 °F 15.8 °F 19.4 °F 86% 29.58 in 1.2 mi WSW 5.8 mph - 0.01 in Snow Light Snow
5:42 PM 23.0 °F 14.7 °F 17.6 °F 80% 29.58 in 2.5 mi WSW 6.9 mph - 0.01 in Snow Light Snow
5:49 PM 23.0 °F 14.7 °F 17.6 °F 80% 29.58 in 3.0 mi WSW 6.9 mph - 0.01 in Snow Light Snow
5:52 PM 23.0 °F 14.7 °F 18.0 °F 81% 29.63 in 3.0 mi SW 6.9 mph - 0.01 in Snow Light Snow
6:18 PM 23.0 °F 14.7 °F 17.6 °F 80% 29.59 in 5.0 mi SW 6.9 mph - 0.00 in Snow Light Snow
6:52 PM 23.0 °F 17.0 °F 18.0 °F 81% 29.65 in 7.0 mi SSW 4.6 mph - 0.00 in Snow Light Snow
7:08 PM 23.0 °F - 17.6 °F 80% 29.60 in 9.0 mi Calm Calm - 0.00 in Snow Light Snow
7:52 PM 23.0 °F 15.8 °F 16.0 °F 74% 29.65 in 10.0 mi SSW 5.8 mph - 0.00 in   Overcast
8:10 PM 23.0 °F 17.0 °F 15.8 °F 74% 29.61 in 10.0 mi SW 4.6 mph - N/A   Overcast
8:52 PM 21.9 °F 14.5 °F 15.1 °F 75% 29.66 in 10.0 mi WSW 5.8 mph - N/A   Overcast
10:52 PM 21.9 °F 15.7 °F 16.0 °F 78% 29.68 in 10.0 mi South 4.6 mph - 0.00 in   Overcast
11:52 PM 21.0 °F 14.6 °F 17.1 °F 85% 29.70 in 4.0 mi South 4.6 mph - 0.00 in Snow Light Snow